timestamp,wind_dir_avg,wind_spd_max_dir,wind_spd_avg,wind_spd_gust,battery_voltage,lat,long
2018-01-30 00:00:00+00:00,45.0,47.0,8.66,9.76,,47.59359,-54.27349
2018-01-30 00:10:00+00:00,56.0,60.0,9.06,10.39,,47.59359,-54.27349
2018-01-30 00:20:00+00:00,59.0,62.0,7.62,8.62,,47.59359,-54.27349
2018-01-30 00:30:00+00:00,51.0,47.0,8.92,9.72,,47.59359,-54.27349
2018-01-30 00:40:00+00:00,53.0,50.0,8.83,9.83,,47.59359,-54.27349
2018-01-30 00:50:00+00:00,55.0,51.0,8.77,10.12,,47.59359,-54.27349
2018-01-30 01:00:00+00:00,48.0,48.0,8.85,9.99,,47.59359,-54.27349
2018-01-30 01:10:00+00:00,44.0,49.0,8.95,10.44,,47.59359,-54.27349
2018-01-30 01:20:00+00:00,56.0,56.0,8.97,9.8,,47.59359,-54.27349
2018-01-30 01:30:00+00:00,46.0,49.0,9.68,11.3,,47.59359,-54.27349
2018-01-30 01:40:00+00:00,64.0,60.0,8.33,9.63,,47.59359,-54.27349
2018-01-30 01:50:00+00:00,59.0,63.0,8.86,9.67,,47.59359,-54.27349
2018-01-30 02:00:00+00:00,77.0,73.0,7.95,9.21,,47.59359,-54.27349
2018-01-30 02:10:00+00:00,58.0,61.0,9.06,10.44,,47.59359,-54.27349
2018-01-30 02:20:00+00:00,80.0,82.0,8.39,9.06,,47.59359,-54.27349
2018-01-30 02:30:00+00:00,81.0,85.0,8.1,8.88,,47.59359,-54.27349
2018-01-30 02:40:00+00:00,86.0,89.0,7.54,8.7,,47.59359,-54.27349
2018-01-30 02:50:00+00:00,83.0,86.0,7.47,9.45,,47.59359,-54.27349
2018-01-30 03:00:00+00:00,86.0,86.0,7.45,8.63,,47.59359,-54.27349
2018-01-30 03:10:00+00:00,87.0,88.0,7.23,9.56,,47.59359,-54.27349
2018-01-30 03:20:00+00:00,85.0,89.0,8.76,10.16,,47.59359,-54.27349
2018-01-30 03:30:00+00:00,90.0,85.0,6.38,8.82,,47.59359,-54.27349
2018-01-30 03:40:00+00:00,85.0,82.0,7.55,8.72,,47.59359,-54.27349
2018-01-30 03:50:00+00:00,87.0,80.0,7.72,10.35,,47.59359,-54.27349
2018-01-30 04:00:00+00:00,84.0,83.0,9.15,10.75,,47.59359,-54.27349
2018-01-30 04:10:00+00:00,81.0,79.0,8.64,11.85,,47.59359,-54.27349
2018-01-30 04:20:00+00:00,84.0,86.0,8.61,10.64,,47.59359,-54.27349
2018-01-30 04:30:00+00:00,88.0,74.0,7.52,10.35,,47.59359,-54.27349
2018-01-30 04:40:00+00:00,88.0,75.0,7.0,9.13,,47.59359,-54.27349
2018-01-30 04:50:00+00:00,83.0,81.0,8.76,10.4,,47.59359,-54.27349
2018-01-30 05:00:00+00:00,86.0,88.0,8.42,11.45,,47.59359,-54.27349
2018-01-30 05:10:00+00:00,86.0,72.0,8.04,10.02,,47.59359,-54.27349
2018-01-30 05:20:00+00:00,80.0,89.0,9.89,11.66,,47.59359,-54.27349
2018-01-30 05:30:00+00:00,83.0,81.0,8.9,10.17,,47.59359,-54.27349
2018-01-30 05:40:00+00:00,77.0,81.0,9.32,11.08,,47.59359,-54.27349
2018-01-30 05:50:00+00:00,75.0,73.0,11.04,12.29,,47.59359,-54.27349
2018-01-30 06:00:00+00:00,75.0,71.0,11.24,12.69,,47.59359,-54.27349
2018-01-30 06:10:00+00:00,73.0,67.0,9.89,11.74,,47.59359,-54.27349
2018-01-30 06:20:00+00:00,75.0,72.0,11.33,13.14,,47.59359,-54.27349
2018-01-30 06:30:00+00:00,77.0,78.0,11.61,12.99,,47.59359,-54.27349
2018-01-30 06:40:00+00:00,69.0,70.0,12.77,17.08,,47.59359,-54.27349
2018-01-30 06:50:00+00:00,77.0,78.0,12.47,16.78,,47.59359,-54.27349
2018-01-30 07:00:00+00:00,80.0,83.0,11.77,16.4,,47.59359,-54.27349
2018-01-30 07:10:00+00:00,75.0,74.0,12.28,15.32,,47.59359,-54.27349
2018-01-30 07:20:00+00:00,83.0,87.0,10.01,12.7,,47.59359,-54.27349
2018-01-30 07:30:00+00:00,82.0,80.0,10.05,11.64,,47.59359,-54.27349
2018-01-30 07:40:00+00:00,77.0,79.0,11.05,12.56,,47.59359,-54.27349
2018-01-30 07:50:00+00:00,80.0,82.0,12.87,17.05,,47.59359,-54.27349
2018-01-30 08:00:00+00:00,81.0,82.0,9.81,11.29,,47.59359,-54.27349
2018-01-30 08:10:00+00:00,81.0,81.0,13.1,17.81,,47.59359,-54.27349
2018-01-30 08:20:00+00:00,75.0,73.0,11.79,15.12,,47.59359,-54.27349
2018-01-30 08:30:00+00:00,78.0,83.0,12.05,16.17,,47.59359,-54.27349
2018-01-30 08:40:00+00:00,86.0,88.0,11.65,16.59,,47.59359,-54.27349
2018-01-30 08:50:00+00:00,80.0,85.0,12.88,18.49,,47.59359,-54.27349
2018-01-30 09:00:00+00:00,84.0,85.0,14.85,18.57,,47.59359,-54.27349
2018-01-30 09:10:00+00:00,80.0,80.0,14.29,18.12,,47.59359,-54.27349
2018-01-30 09:20:00+00:00,82.0,83.0,11.7,16.07,,47.59359,-54.27349
2018-01-30 09:30:00+00:00,83.0,86.0,13.73,18.93,,47.59359,-54.27349
2018-01-30 09:40:00+00:00,81.0,81.0,12.55,17.87,,47.59359,-54.27349
2018-01-30 09:50:00+00:00,84.0,85.0,17.08,19.25,,47.59359,-54.27349
2018-01-30 10:00:00+00:00,80.0,81.0,14.49,18.94,,47.59359,-54.27349
2018-01-30 10:10:00+00:00,82.0,81.0,18.77,20.66,,47.59359,-54.27349
2018-01-30 10:20:00+00:00,76.0,78.0,17.04,19.46,,47.59359,-54.27349
2018-01-30 10:30:00+00:00,80.0,79.0,18.74,21.49,,47.59359,-54.27349
2018-01-30 10:40:00+00:00,76.0,75.0,19.78,21.51,,47.59359,-54.27349
2018-01-30 10:50:00+00:00,82.0,86.0,17.46,19.5,,47.59359,-54.27349
2018-01-30 11:00:00+00:00,82.0,88.0,16.78,20.67,,47.59359,-54.27349
2018-01-30 11:10:00+00:00,79.0,81.0,18.57,20.98,,47.59359,-54.27349
2018-01-30 11:20:00+00:00,78.0,79.0,16.86,19.86,,47.59359,-54.27349
2018-01-30 11:30:00+00:00,83.0,86.0,17.22,19.52,,47.59359,-54.27349
2018-01-30 11:40:00+00:00,78.0,82.0,15.93,18.66,,47.59359,-54.27349
2018-01-30 11:50:00+00:00,76.0,74.0,18.94,21.33,,47.59359,-54.27349
2018-01-30 12:00:00+00:00,76.0,76.0,19.46,21.65,,47.59359,-54.27349
2018-01-30 12:10:00+00:00,79.0,76.0,17.16,20.53,,47.59359,-54.27349
2018-01-30 12:20:00+00:00,79.0,76.0,18.57,21.8,,47.59359,-54.27349
2018-01-30 12:30:00+00:00,77.0,74.0,19.65,21.51,,47.59359,-54.27349
2018-01-30 12:40:00+00:00,77.0,72.0,16.49,19.45,,47.59359,-54.27349
2018-01-30 12:50:00+00:00,77.0,79.0,17.18,20.44,,47.59359,-54.27349
2018-01-30 13:00:00+00:00,78.0,79.0,18.48,21.34,,47.59359,-54.27349
2018-01-30 13:10:00+00:00,79.0,81.0,18.41,21.65,,47.59359,-54.27349
2018-01-30 13:20:00+00:00,80.0,78.0,18.96,20.76,,47.59359,-54.27349
2018-01-30 13:30:00+00:00,76.0,73.0,17.77,21.27,,47.59359,-54.27349
2018-01-30 13:40:00+00:00,74.0,71.0,18.74,21.06,,47.59359,-54.27349
2018-01-30 13:50:00+00:00,78.0,76.0,19.68,21.65,,47.59359,-54.27349
2018-01-30 14:00:00+00:00,80.0,78.0,17.95,21.79,,47.59359,-54.27349
2018-01-30 14:10:00+00:00,74.0,75.0,17.79,21.36,,47.59359,-54.27349
2018-01-30 14:20:00+00:00,76.0,79.0,17.32,21.21,,47.59359,-54.27349
2018-01-30 14:30:00+00:00,77.0,77.0,15.66,21.06,,47.59359,-54.27349
2018-01-30 14:40:00+00:00,78.0,83.0,15.39,19.43,,47.59359,-54.27349
2018-01-30 14:50:00+00:00,80.0,75.0,15.2,18.62,,47.59359,-54.27349
2018-01-30 15:00:00+00:00,79.0,78.0,16.3,20.23,,47.59359,-54.27349
2018-01-30 15:10:00+00:00,83.0,81.0,17.11,19.82,,47.59359,-54.27349
2018-01-30 15:20:00+00:00,78.0,79.0,17.07,20.83,,47.59359,-54.27349
2018-01-30 15:30:00+00:00,84.0,87.0,13.35,17.18,,47.59359,-54.27349
2018-01-30 15:40:00+00:00,83.0,81.0,13.5,18.74,,47.59359,-54.27349
2018-01-30 15:50:00+00:00,83.0,79.0,13.8,18.81,,47.59359,-54.27349
2018-01-30 16:00:00+00:00,81.0,87.0,14.97,18.07,,47.59359,-54.27349
2018-01-30 16:10:00+00:00,82.0,86.0,14.49,17.2,,47.59359,-54.27349
2018-01-30 16:20:00+00:00,83.0,77.0,12.58,14.67,,47.59359,-54.27349
2018-01-30 16:30:00+00:00,83.0,84.0,13.03,16.11,,47.59359,-54.27349
2018-01-30 16:40:00+00:00,86.0,83.0,12.35,14.39,,47.59359,-54.27349
2018-01-30 16:50:00+00:00,87.0,81.0,11.23,14.71,,47.59359,-54.27349
2018-01-30 17:00:00+00:00,81.0,79.0,12.72,14.51,,47.59359,-54.27349
2018-01-30 17:10:00+00:00,85.0,83.0,11.82,13.24,,47.59359,-54.27349
2018-01-30 17:20:00+00:00,84.0,85.0,11.68,13.59,,47.59359,-54.27349
2018-01-30 17:30:00+00:00,88.0,85.0,11.22,14.86,,47.59359,-54.27349
2018-01-30 17:40:00+00:00,87.0,84.0,10.98,12.93,,47.59359,-54.27349
2018-01-30 17:50:00+00:00,92.0,93.0,8.41,8.41,,47.59359,-54.27349
2018-01-30 18:00:00+00:00,87.0,84.0,9.44,11.82,,47.59359,-54.27349
2018-01-30 23:30:00+00:00,200.0,197.0,5.83,9.96,,47.59359,-54.27349
2018-01-30 23:40:00+00:00,199.0,202.0,14.39,17.42,,47.59359,-54.27349
2018-01-30 23:50:00+00:00,198.0,201.0,15.14,17.67,,47.59359,-54.27349
